SWA361 KATL-KBHM

Flight info

Callsign SWA361
Flight time 0h 30m
Altitude 16000
Route NASSA2 NASSA KIOSK
Aircraft B38M/M-SDE1FGHILORVWXY/HB1

Departure

Time 2026-05-08 02:27
Airport Hartsfield Jackson Atlanta International Airport (KATL)

Arrival

Time 2026-05-08 02:57
Airport Birmingham-Shuttlesworth International Airport (KBHM)
Time Latitude Longitude Altitude Speed Heading
2026-05-08 01:51 33.63867 -84.43337 1009 ft 0 kts 89°
2026-05-08 02:13 33.63867 -84.43341 1009 ft 2 kts 89°
2026-05-08 02:14 33.63867 -84.43363 1009 ft 3 kts 89°
2026-05-08 02:14 33.63867 -84.43387 1009 ft 3 kts 89°
2026-05-08 02:14 33.63866 -84.43411 1009 ft 3 kts 89°
2026-05-08 02:14 33.63866 -84.43435 1009 ft 3 kts 89°
2026-05-08 02:15 33.63866 -84.43445 1009 ft 0 kts 89°
2026-05-08 02:18 33.63866 -84.43444 1009 ft 0 kts 89°
2026-05-08 02:19 33.63883 -84.43414 1009 ft 10 kts 37°
2026-05-08 02:19 33.63968 -84.43393 1009 ft 14 kts
2026-05-08 02:19 33.64072 -84.43394 1009 ft 16 kts
2026-05-08 02:19 33.64188 -84.43393 1009 ft 17 kts 358°
2026-05-08 02:20 33.64316 -84.43393 1009 ft 19 kts
2026-05-08 02:20 33.64444 -84.43371 1009 ft 17 kts 43°
2026-05-08 02:20 33.64460 -84.43247 1009 ft 16 kts 89°
2026-05-08 02:20 33.64467 -84.43117 1009 ft 8 kts 58°
2026-05-08 02:21 33.64511 -84.43087 1009 ft 8 kts 34°
2026-05-08 02:21 33.64541 -84.43005 1009 ft 14 kts 87°
2026-05-08 02:21 33.64542 -84.42880 1009 ft 16 kts 90°
2026-05-08 02:21 33.64542 -84.42737 1009 ft 18 kts 90°
2026-05-08 02:22 33.64542 -84.42578 1008 ft 20 kts 90°
2026-05-08 02:22 33.64542 -84.42402 1008 ft 22 kts 90°
2026-05-08 02:22 33.64542 -84.42211 1008 ft 24 kts 90°
2026-05-08 02:22 33.64543 -84.42008 1008 ft 25 kts 90°
2026-05-08 02:23 33.64542 -84.41797 1008 ft 26 kts 90°
2026-05-08 02:23 33.64543 -84.41583 1009 ft 26 kts 89°
2026-05-08 02:23 33.64542 -84.41362 1009 ft 27 kts 90°
2026-05-08 02:23 33.64542 -84.41132 1009 ft 29 kts 90°
2026-05-08 02:24 33.64542 -84.40904 1008 ft 18 kts 90°
2026-05-08 02:24 33.64567 -84.40750 1008 ft 20 kts 82°
2026-05-08 02:24 33.64580 -84.40593 1008 ft 8 kts 60°
2026-05-08 02:24 33.64584 -84.40587 1008 ft 0 kts 50°
2026-05-08 02:25 33.64598 -84.40578 1007 ft 9 kts 24°
2026-05-08 02:25 33.64673 -84.40594 1006 ft 13 kts 297°
2026-05-08 02:25 33.64679 -84.40677 1006 ft 8 kts 269°
2026-05-08 02:25 33.64679 -84.40751 1007 ft 12 kts 270°
2026-05-08 02:26 33.64681 -84.41019 1009 ft 63 kts 270°
2026-05-08 02:26 33.64680 -84.41796 1010 ft 121 kts 270°
2026-05-08 02:26 33.64679 -84.43005 1027 ft 164 kts 270°
2026-05-08 02:26 33.64688 -84.44452 1418 ft 179 kts 271°
2026-05-08 02:27 33.64729 -84.45957 2105 ft 181 kts 281°
2026-05-08 02:27 33.64970 -84.47452 2763 ft 190 kts 285°
2026-05-08 02:27 33.65282 -84.49069 3242 ft 211 kts 285°
2026-05-08 02:27 33.65625 -84.50879 3702 ft 233 kts 284°
2026-05-08 02:28 33.65980 -84.52781 4568 ft 237 kts 283°
2026-05-08 02:28 33.66349 -84.54776 5157 ft 251 kts 282°
2026-05-08 02:28 33.66726 -84.56818 6153 ft 247 kts 281°
2026-05-08 02:28 33.67083 -84.58813 7071 ft 247 kts 280°
2026-05-08 02:29 33.67426 -84.60833 7980 ft 246 kts 280°
2026-05-08 02:29 33.67768 -84.62851 8902 ft 245 kts 279°
2026-05-08 02:29 33.68110 -84.64862 9728 ft 247 kts 279°
2026-05-08 02:29 33.68453 -84.66883 9966 ft 247 kts 279°
2026-05-08 02:30 33.68796 -84.68901 9990 ft 245 kts 279°
2026-05-08 02:30 33.69133 -84.70883 9981 ft 245 kts 280°
2026-05-08 02:30 33.69471 -84.72880 10000 ft 245 kts 279°
2026-05-08 02:30 33.69810 -84.74882 9987 ft 245 kts 279°
2026-05-08 02:31 33.69987 -84.76914 9985 ft 243 kts 270°
2026-05-08 02:31 33.69984 -84.78956 10005 ft 244 kts 270°
2026-05-08 02:31 33.69982 -84.81016 10045 ft 255 kts 270°
2026-05-08 02:31 33.69980 -84.83197 10418 ft 273 kts 270°
2026-05-08 02:32 33.69976 -84.85560 10723 ft 291 kts 270°
2026-05-08 02:32 33.69972 -84.88024 11214 ft 301 kts 270°
2026-05-08 02:32 33.69967 -84.90492 12021 ft 300 kts 270°
2026-05-08 02:32 33.69962 -84.93012 12798 ft 303 kts 271°
2026-05-08 02:33 33.69956 -84.95547 13608 ft 304 kts 270°
2026-05-08 02:33 33.69949 -84.98096 14361 ft 306 kts 271°
2026-05-08 02:33 33.69941 -85.00664 15066 ft 308 kts 270°
2026-05-08 02:33 33.69934 -85.03246 15743 ft 312 kts 270°
2026-05-08 02:34 33.69926 -85.05879 15962 ft 314 kts 270°
2026-05-08 02:34 33.69917 -85.08518 15999 ft 328 kts 270°
2026-05-08 02:34 33.69906 -85.11321 16012 ft 340 kts 270°
2026-05-08 02:34 33.69896 -85.14186 16032 ft 345 kts 270°
2026-05-08 02:35 33.69884 -85.17087 16050 ft 347 kts 270°
2026-05-08 02:35 33.69871 -85.19986 16064 ft 347 kts 270°
2026-05-08 02:35 33.69808 -85.22849 16054 ft 347 kts 264°
2026-05-08 02:35 33.69410 -85.25703 16067 ft 348 kts 263°
2026-05-08 02:36 33.69028 -85.28582 16054 ft 348 kts 263°
2026-05-08 02:36 33.68659 -85.31469 16004 ft 348 kts 263°
2026-05-08 02:36 33.68308 -85.34278 16003 ft 348 kts 263°
2026-05-08 02:36 33.67954 -85.37155 16000 ft 348 kts 263°
2026-05-08 02:37 33.67603 -85.40022 16004 ft 348 kts 263°
2026-05-08 02:37 33.67250 -85.42901 15999 ft 348 kts 263°
2026-05-08 02:37 33.66899 -85.45762 16004 ft 349 kts 263°
2026-05-08 02:37 33.66545 -85.48647 16007 ft 349 kts 263°
2026-05-08 02:38 33.66189 -85.51542 16005 ft 349 kts 263°
2026-05-08 02:38 33.65833 -85.54430 16007 ft 349 kts 263°
2026-05-08 02:38 33.65481 -85.57277 16012 ft 349 kts 263°
2026-05-08 02:38 33.65125 -85.60158 16020 ft 349 kts 263°
2026-05-08 02:39 33.64777 -85.62966 16018 ft 349 kts 263°
2026-05-08 02:39 33.64423 -85.65818 16026 ft 349 kts 263°
2026-05-08 02:39 33.64064 -85.68693 16022 ft 349 kts 263°
2026-05-08 02:39 33.63707 -85.71558 16033 ft 340 kts 263°
2026-05-08 02:40 33.63365 -85.74298 16055 ft 322 kts 263°
2026-05-08 02:40 33.63040 -85.76891 16059 ft 306 kts 263°
2026-05-08 02:40 33.62732 -85.79348 16051 ft 291 kts 263°
2026-05-08 02:40 33.62431 -85.81753 15748 ft 299 kts 264°
2026-05-08 02:41 33.62131 -85.84125 15831 ft 277 kts 264°
2026-05-08 02:41 33.61815 -85.86658 13243 ft 341 kts 263°
2026-05-08 02:41 33.61448 -85.89546 12032 ft 359 kts 263°
2026-05-08 02:41 33.61077 -85.92479 11524 ft 353 kts 263°
2026-05-08 02:42 33.60711 -85.95362 11161 ft 344 kts 263°
2026-05-08 02:42 33.60361 -85.98128 11102 ft 326 kts 263°
2026-05-08 02:42 33.60028 -86.00751 11090 ft 310 kts 263°
2026-05-08 02:42 33.59710 -86.03244 11087 ft 294 kts 263°
2026-05-08 02:43 33.59410 -86.05598 11071 ft 275 kts 263°
2026-05-08 02:43 33.59135 -86.07745 11065 ft 251 kts 263°
2026-05-08 02:43 33.58880 -86.09745 11053 ft 236 kts 263°
2026-05-08 02:43 33.58631 -86.11685 11041 ft 234 kts 263°
2026-05-08 02:44 33.58384 -86.13616 11023 ft 234 kts 263°
2026-05-08 02:44 33.58133 -86.15518 11057 ft 234 kts 262°
2026-05-08 02:44 33.57856 -86.17450 11057 ft 234 kts 262°
2026-05-08 02:44 33.57581 -86.19380 11050 ft 234 kts 263°
2026-05-08 02:45 33.57306 -86.21305 11051 ft 234 kts 263°
2026-05-08 02:45 33.57033 -86.23224 11047 ft 234 kts 262°
2026-05-08 02:45 33.56758 -86.25150 11008 ft 234 kts 262°
2026-05-08 02:45 33.56493 -86.27010 10831 ft 224 kts 263°
2026-05-08 02:46 33.56234 -86.28821 10540 ft 216 kts 263°
2026-05-08 02:46 33.55981 -86.30596 10253 ft 220 kts 262°
2026-05-08 02:46 33.55715 -86.32449 9905 ft 228 kts 262°
2026-05-08 02:46 33.55444 -86.34346 9585 ft 232 kts 262°
2026-05-08 02:47 33.55169 -86.36262 9299 ft 234 kts 262°
2026-05-08 02:47 33.54898 -86.38159 9021 ft 234 kts 262°
2026-05-08 02:47 33.54620 -86.40091 8767 ft 235 kts 262°
2026-05-08 02:47 33.54341 -86.42029 8509 ft 235 kts 262°
2026-05-08 02:48 33.54062 -86.43970 8250 ft 235 kts 262°
2026-05-08 02:48 33.53783 -86.45908 7981 ft 236 kts 262°
2026-05-08 02:48 33.53506 -86.47822 7726 ft 237 kts 262°
2026-05-08 02:48 33.53225 -86.49771 7476 ft 237 kts 262°
2026-05-08 02:49 33.52943 -86.51714 7207 ft 237 kts 262°
2026-05-08 02:49 33.52659 -86.53669 6972 ft 238 kts 262°
2026-05-08 02:49 33.52375 -86.55628 6699 ft 238 kts 262°
2026-05-08 02:49 33.52090 -86.57591 6442 ft 240 kts 262°
2026-05-08 02:50 33.51804 -86.59568 6121 ft 240 kts 263°
2026-05-08 02:50 33.51525 -86.61522 5859 ft 242 kts 261°
2026-05-08 02:50 33.51232 -86.63512 5593 ft 243 kts 261°
2026-05-08 02:50 33.50938 -86.65517 5315 ft 244 kts 261°
2026-05-08 02:51 33.50645 -86.67526 5034 ft 245 kts 261°
2026-05-08 02:51 33.50350 -86.69539 4794 ft 244 kts 261°
2026-05-08 02:51 33.50065 -86.71478 4629 ft 228 kts 262°
2026-05-08 02:51 33.49802 -86.73288 4522 ft 212 kts 262°
2026-05-08 02:52 33.49557 -86.74952 4391 ft 200 kts 262°
2026-05-08 02:52 33.49312 -86.76620 4298 ft 208 kts 262°
2026-05-08 02:52 33.49057 -86.78356 4218 ft 214 kts 261°
2026-05-08 02:52 33.48797 -86.80130 4081 ft 216 kts 261°
2026-05-08 02:53 33.48537 -86.81889 3946 ft 211 kts 262°
2026-05-08 02:53 33.48290 -86.83566 3794 ft 199 kts 262°
2026-05-08 02:53 33.48051 -86.85190 3585 ft 196 kts 262°
2026-05-08 02:53 33.47932 -86.86783 3343 ft 193 kts 283°
2026-05-08 02:54 33.48628 -86.88060 3053 ft 184 kts 329°
2026-05-08 02:54 33.49854 -86.88455 2848 ft 187 kts
2026-05-08 02:54 33.51062 -86.87923 2572 ft 189 kts 37°
2026-05-08 02:54 33.51795 -86.86633 2372 ft 192 kts 70°
2026-05-08 02:55 33.52104 -86.85094 2118 ft 181 kts 72°
2026-05-08 02:55 33.52662 -86.82399 1573 ft 155 kts 70°
2026-05-08 02:55 33.53081 -86.81228 1269 ft 152 kts 59°
2026-05-08 02:56 33.53697 -86.80177 1188 ft 155 kts 50°
2026-05-08 02:56 33.54306 -86.79168 1046 ft 150 kts 53°
2026-05-08 02:56 33.54903 -86.78148 826 ft 149 kts 56°
2026-05-08 02:56 33.55488 -86.77132 627 ft 144 kts 54°
2026-05-08 02:57 33.56003 -86.76252 620 ft 103 kts 55°
2026-05-08 02:57 33.56205 -86.75831 630 ft 28 kts 120°
2026-05-08 02:57 33.56171 -86.75716 635 ft 13 kts 102°